Lake Louise, Canada 16 day weather forecast

Slopes altitude range 1630 m - 2730m

Number of lifts: 26 Pistes: 100km

In some cases the lift and piste totals shown are for the ski domain (e.g. Three Valleys) rather than individual resort (e.g. Courchevel)

Overview

The 16 day weather forecast is fully updated 4 times every day.

    • Wed 19 DEC 2018
    • Wed 19
    • -9C -7C
    • Thu 20 DEC 2018
    • Thu 20
    • -14C -11C
    • Fri 21 DEC 2018
    • Fri 21
    • -13C -10C
    • Sat 22 DEC 2018
    • Sat 22
    • -23C -22C
    • Sun 23 DEC 2018
    • Sun 23
    • -20C -19C
    • Mon 24 DEC 2018
    • Mon 24
    • -16C -14C
    • Tue 25 DEC 2018
    • Tue 25
    • -19C -16C
    • Wed 26 DEC 2018
    • Wed 26
    • -16C -14C
    • Thu 27 DEC 2018
    • Thu 27
    • -20C -17C
    • Fri 28 DEC 2018
    • Fri 28
    • -19C -18C
    • Sat 29 DEC 2018
    • Sat 29
    • -11C -8C
    • Sun 30 DEC 2018
    • Sun 30
    • -8C -6C
    • Mon 31 DEC 2018
    • Mon 31
    • -13C -10C
    • Tue 01 JAN 2019
    • Tue 01
    • -11C -6C
    • Wed 02 JAN 2019
    • Wed 02
    • -9C -7C
    • Thu 03 JAN 2019
    • Thu 03
    • -11C -6C

Date:

Time Type 0°C level Temp Chill Snow Cloud Speed Gust Dir Press
3:00 1233m -7°C -7_10 1cm 98% 10mph 18mph 1001mB
6:00 1140m -8°C -8_9 1cm 95% 9mph 31mph 1004mB
9:00 1033m -8°C -8_7 1cm 98% 7mph 15mph 1008mB
12:00 933m -7°C -7_7 1cm 98% 7mph 9mph 1012mB
15:00 917m -9°C -9_8 1cm 99% 8mph 14mph 1015mB
18:00 1036m -8°C -8_10 1cm 98% 10mph 22mph 1017mB
21:00 1041m -8°C -8_9 0cm 69% 9mph 22mph 1017mB
0:00 700m -10°C -10_7 1cm 79% 7mph 8mph 1019mB
3:00 532m -12°C -12_7 1cm 96% 7mph 10mph 1021mB
6:00 554m -12°C -12_7 1cm 96% 7mph 9mph 1022mB
9:00 268m -13°C -13_5 0cm 98% 5mph 6mph 1020mB
12:00 384m -11°C -11_6 1cm 99% 6mph 7mph 1017mB
15:00 592m -11°C -11_7 1cm 100% 7mph 10mph 1012mB
18:00 1083m -8°C -8_10 1cm 98% 10mph 16mph 1005mB
21:00 1454m -8°C -8_12 1cm 99% 12mph 24mph 999mB
0:00 1361m -8°C -8_13 2cm 99% 13mph 31mph 993mB
3:00 1272m -7°C -7_29 1cm 99% 29mph 54mph 991mB
6:00 723m -10°C -10_19 2cm 88% 19mph 42mph 994mB
9:00 517m -12°C -12_14 1cm 99% 14mph 38mph 998mB
12:00 344m -10°C -10_15 1cm 99% 15mph 35mph 1005mB
15:00 0m -13°C -13_9 1cm 99% 9mph 12mph 1013mB
18:00 0m -13°C -13_9 1cm 97% 9mph 15mph 1018mB
21:00 0m -17°C -17_9 1cm 96% 9mph 19mph 1019mB
0:00 0m -20°C -20_6 1cm 95% 6mph 7mph 1024mB
3:00 0m -22°C -22_5 0cm 95% 5mph 5mph 1027mB
6:00 0m -23°C -23_4 0cm 94% 4mph 5mph 1029mB
9:00 0m -23°C -23_4 0cm 95% 4mph 5mph 1029mB
12:00 0m -22°C -22_3 0cm 95% 3mph 4mph 1029mB
15:00 0m -22°C -22_3 0cm 76% 3mph 4mph 1029mB
18:00 0m -17°C -17_4 0cm 68% 4mph 5mph 1027mB
21:00 72m -17°C -17_6 0cm 97% 6mph 7mph 1024mB
0:00 0m -20°C -20_5 0cm 92% 5mph 6mph 1025mB
3:00 0m -22°C -22_5 0cm 34% 5mph 6mph 1025mB
6:00 0m -22°C -22_6 0cm 66% 6mph 7mph 1025mB
9:00 0m -20°C -20_6 0cm 97% 6mph 6mph 1023mB
12:00 0m -19°C -19_5 0cm 98% 5mph 6mph 1020mB
15:00 0m -17°C -17_5 1cm 100% 5mph 5mph 1016mB
18:00 5m -15°C -15_5 1cm 98% 5mph 7mph 1013mB
21:00 476m -15°C -15_6 1cm 97% 6mph 9mph 1010mB
0:00 50m -15°C -15_5 1cm 97% 5mph 6mph 1011mB
3:00 2m -15°C -15_5 0cm 94% 5mph 6mph 1012mB
6:00 73m -15°C -15_4 0cm 96% 4mph 5mph 1013mB
9:00 54m -15°C -15_4 1cm 98% 4mph 4mph 1014mB
12:00 4m -14°C -14_3 0cm 95% 3mph 4mph 1015mB
15:00 0m -16°C -16_2 0cm 63% 2mph 3mph 1015mB
18:00 385m -12°C -12_1 0cm 74% 1mph 1mph 1014mB
21:00 893m -12°C -12_3 0cm 92% 3mph 5mph 1012mB
0:00 196m -14°C -14_3 0cm 83% 3mph 3mph 1014mB
3:00 18m -15°C -15_5 0cm 64% 5mph 5mph 1016mB
6:00 0m -17°C -17_4 0cm 75% 4mph 5mph 1018mB
9:00 0m -17°C -17_3 1cm 95% 3mph 4mph 1019mB
12:00 0m -16°C -16_2 0cm 91% 2mph 3mph 1021mB
15:00 0m -20°C -20_1 0cm 6% 1mph 1mph 1022mB
18:00 30m -15°C -15_2 0cm 3% 2mph 3mph 1021mB
21:00 561m -14°C -14_5 0cm 3% 5mph 6mph 1018mB
0:00 0m -17°C -17_4 0cm 47% 4mph 5mph 1020mB
3:00 0m -19°C -19_3 0cm 97% 3mph 4mph 1020mB
6:00 0m -19°C -19_4 0cm 97% 4mph 4mph 1020mB
9:00 0m -15°C -15_7 0cm 100% 7mph 7mph 1020mB
12:00 0m -14°C -14_6 0cm 57% 6mph 7mph 1020mB
15:00 0m -15°C -15_4 1cm 97% 4mph 5mph 1021mB
18:00 146m -13°C -13_2 1cm 99% 2mph 2mph 1021mB
21:00 215m -13°C -13_4 1cm 100% 4mph 6mph 1020mB
0:00 0m -14°C -14_6 1cm 100% 6mph 8mph 1022mB
3:00 0m -16°C -16_4 1cm 100% 4mph 7mph 1025mB
6:00 0m -17°C -17_3 1cm 100% 3mph 4mph 1028mB
9:00 0m -19°C -19_2 1cm 100% 2mph 2mph 1031mB
12:00 0m -17°C -17_2 1cm 99% 2mph 2mph 1033mB
15:00 0m -21°C -21_3 0cm 95% 3mph 3mph 1036mB
18:00 0m -17°C -17_2 0cm 72% 2mph 3mph 1036mB
21:00 6m -17°C -17_2 0cm 55% 2mph 3mph 1032mB
0:00 0m -18°C -18_4 0cm 28% 4mph 5mph 1034mB
3:00 0m -19°C -19_6 0cm 0% 6mph 7mph 1035mB
6:00 0m -19°C -19_7 0cm 0% 7mph 8mph 1035mB
9:00 0m -19°C -19_8 0cm 0% 8mph 9mph 1034mB
12:00 0m -18°C -18_9 0cm 3% 9mph 9mph 1033mB
15:00 0m -18°C -18_9 0cm 31% 9mph 10mph 1031mB
18:00 11m -14°C -14_9 0cm 65% 9mph 13mph 1028mB
Morning 0.15625mm 0 247m -12°C -12_9 0cm 92% 9mph 14mph 1023mB
Afternoon 0.385417mm 0 796m -8°C -8_7 3cm 87% 7mph 10mph 1019mB
Morning 0.333333mm 0 717m -8°C -8_8 3cm 98% 8mph 12mph 1016mB
Afternoon 0.015625mm 0 1040m -6°C -6_7 1cm 100% 7mph 11mph 1016mB
Morning 0.0260417mm 0 376m -10°C -10_8 1cm 95% 8mph 10mph 1022mB
Afternoon 0.229167mm 0 441m -10°C -10_9 0cm 35% 9mph 13mph 1023mB
Morning 0.0572917mm 0 335m -11°C -11_12 0cm 55% 12mph 19mph 1016mB
Afternoon 0.00520833mm 0 972m -6°C -6_15 0cm 58% 15mph 27mph 1002mB
Morning 0mm 0 935m -7°C -7_12 0cm 100% 12mph 25mph 1006mB
Afternoon 0mm 0 844m -7°C -7_12 0cm 52% 12mph 21mph 1006mB
Morning 0mm 0 958m -7°C -7_11 0cm 97% 11mph 25mph 1004mB
Afternoon 0.00520833mm 0 502m -6°C -6_7 0cm 66% 7mph 11mph 1011mB

16 day outlook at a glance

Forecast issued: 19/12/2018 03:06:17

Chat

Your comments and questions. In a resort? Let us know what it's like!


Characters left 250

For terms and conditions see Readers Comments on the Cookie and privacy policy page.